STARLINK-4554 (53626 NORAD) Tracking and Keplerian Element Data

This shows tracking and keplerian element data for the satellite.

Feedback or suggestion? Click here.




ElementValue
Catalog53626
NameSTARLINK-4554
Epoch Orbit130
Epoch Day324.91667824
Epoch Year2022
RAAN242.198
Inclination53.218
Eccentricity0.0001582
Argument of Perigee48.8226
Mean Anonmoly190.9098
Mean Motion15.08872219
Decay Rate-0.0006154
L11 53626U 22104AQ 22324.91667824 -.00061540 00000+0 -38784-2 0 9996
L22 53626 53.2180 242.1980 0001582 48.8226 190.9098 15.08872219 1308



Live tracking and technical data element details for STARLINK-4554 (NORAD 53626). STARLINK-4554 can be tracked NOW for your location showing map with azimuth and elevation plus other details from your city location.







IsCatalogInMostPopularTable: catalog: 53626, numindb: 2
Update: records affected: 1



GetName: 53626 STARLINK-4554

Hit Count: updated at: Thu, 08 Dec 2022 20:23:38 GMT